Location: Woodhurst
(52.3667°N, 0.0667°W)
Time: 06:49:49
(UTC+00:00)

Cosmos 1842 Rocket - Pass Details

Date: 19 May 2025
Orbit: 600 x 626 km, 82.5° (Epoch: 18 June)

Event Time Altitude Azimuth Distance (km) Brightness Sun altitude
Exits shadow 23:02:50 29° 194° (SSW) 1,105 4.3 -16.7°
Maximum altitude 23:04:58 84° 280° (W) 612 3.5 -16.8°
Drops below altitude 10° 23:09:18 10° 10° (N) 1,958 7.2 -16.9°
Sets 23:11:32 0° 11° (N) 2,867 8.3 -17.0°
